SCP
0 0 0 0 0 0 0 0 0 0 0 0 0 0 0 0 0 0 0 0 0 0 0 0 0 0 0 0 0 0 0 0 0 0 0 0 0 0 0 0 0 0 0 0
0 0 0 0 0 0 0 0 0 0 0 0 0 0 0 0 0 0 0 0 0 0 0 0 0 0 0 0 0 0 0 0 0 0 0 0 0 0 0 0 0 0 0 0
0 0 0 0 0 0 0 0 0 0 0 0 0 0 0 0 0 0 0 0 0 0 0 0 0 0 0 0 0 0 0 0 0 0 0 0 0 0 0 0 0 0 0 0
0 0 0 0 0 0 0 0 0 0 0 0 0 0 0 0 0 0 0 0 0 0 0 0 0 0 0 0 0 0 0 0 0 0 0 0 0 0 0 0 0 0 0 0
0 0 0 0 0 0 0 0 0 0 0 0 0 0 0 0 0 0 0 0 0 0 0 0 0 0 0 0 0 0 0 0 0 0 0 0 0 0 0 0 0 0 0 0
0 0 0 0 0 0 0 0 0 0 0 0 0 0 0 0 0 0 -0 0 0 0 0 0 0 0 0 0 0 0 0 0 0 0 0 0 0 0 0 0 0 0 0 0
0 0 0 0 0 0 0 0 0 0 0 0 0 0 0 0 0 0 0 0 0 0 0 0 0 0 0 0 0 0 0 0 0 0 0 0 0 0 0 0 0 0 0 0
0 0 0 0 0 0 0 0 0 0 0 0 0 0 0 0 0 0 0 0 0 0 0 0 0 0 0 0 0 0 0 0 0 0 0 0 0 0 0 0 0 0 0 0
0 0 0 0 0 0 0 0 0 0 0 0 0 0 0 0 0 0 -0 0 0 0 0 0 0 0 0 0 0 0 0 0 0 0 0 0 0 0 0 0 0 0 0 0
0 0 0 0 0 0 0 0 0 0 0 0 0 0 0 0 0 0 0 0 0 0 0 0 0 0 0 0 0 0 0 0 0 0 0 0 0 0 0 0 0 0 0 0
0 0 0 0 0 0 0 0 0 0 0 0 0 0 0 0 0 0 0 0 0 0 0 0 0 0 0 0 0 0 0 0 0 0 0 0 0 0 0 0 0 0 0 0
0 0 0 0 0 0 0 0 0 0 0 0 0 0 0 0 0 -0 -0 -0 -0 -0 -0 -0 -0 -0 -0 0 0 0 0 0 0 0 0 0 0 0 0 0 0 0 0 0
0 0 0 0 0 0 0 0 0 0 0 0 0 0 0 0 0 0 -0 -0 -0 -0 -0 -0 -0 -0 -0 -0 0 0 0 0 0 0 0 0 0 0 0 0 0 0 0 0
0 0 0 0 0 0 0 0 0 0 0 0 0 0 0 0 0 -0 -0 -0 -0 -0 0 0 0 0 0 0 0 -0 -0 0 0 0 0 0 0 0 0 0 0 0 0 0
0 0 0 0 0 0 0 0 0 0 0 0 0 0 -0 0 -0 -0 0 0 0 0 0 0 0 0 0 0 0 0 0 -0 0 0 0 0 0 0 0 0 0 0 0 0
0 0 0 0 0 0 0 0 0 0 0 0 0 0 0 0 0 0 0 0 0 0 0 0 0 0 0 0 0 0 0 0 0 0 0 0 0 0 0 0 0 0 0 0
0 0 0 0 0 0 0 0 0 0 0 0 0 0 0 0 0 0 0 0 0 0 0 0 0 0 0 0 -0 -0 0 0 0 0 0 0 0 0 0 0 0 0 0 0
0 0 0 0 0 0 0 0 0 0 0 0 0 0 0 0 0 0 0 0 0 0 0 0 0 0 0 -0 -0 -0 -0 -0 -0 -0 -0 -0 0 0 0 0 0 0 0 0
0 0 0 0 0 0 0 0 0 0 0 0 0 0 0 0 0 0 0 0 0 0 0 0 -0 -0 -0 -0 -0 -0 -0 -0 -0 -0 -0 -0 -0 0 0 0 0 0 0 0
0 0 0 0 0 0 0 0 0 0 0 0 0 0 0 0 0 0 0 0 0 0 0 -0 -0 -0 -0 -0 -0 -0 -0 -0 -0 -0 -0 -0 -0 -0 0 0 0 0 0 0
0 0 0 0 0 0 0 0 0 0 0 0 0 0 0 0 0 0 0 0 -0 -0 -0 -0 -0 -0 -0 -0 -0 -0 -0 -0 -0 -0 -0 -0 -0 -0 -0 0 0 0 0 0
0 0 0 0 0 0 0 0 0 0 0 0 0 0 0 0 0 -0 -0 -0 -0 -0 -0 -0 -0 -0 -0 -0 -0 -0 -0 -0 -0 -0 -0 -0 -0 -0 -0 -0 0 0 0 0
0 0 0 0 0 0 0 0 0 0 0 0 0 0 0 0 -0 -0 -0 0 0 0 0 0 -0 -0 0 0 0 -0 -0 -0 -0 -0 -0 -0 -0 -0 -0 -0 0 0 0 0
0 0 0 0 0 0 0 0 0 0 0 0 0 0 0 0 0 0 0 0 0 0 0 0 0 0 0 0 0 0 0 0 -0 -0 -0 -0 -0 -0 -0 0 0 0 0 0
0 0 0 0 0 0 0 0 0 0 0 0 0 0 0 0 0 0 0 0 0 0 0 0 0 0 0 0 0 0 0 0 0 0 -0 -0 -0 -0 -0 0 0 0 0 0
0 0 0 0 0 0 0 0 0 0 0 0 0 0 0 0 0 0 0 0 0 0 0 0 0 0 0 0 0 0 0 0 0 0 -0 -0 -0 -0 -0 0 0 0 0 0
Wind_Speed_500mb
16 10 25 27 18 10 3 8 14 5 9 2 12 29 14 30 49 44 60 64 72 82 83 78 79 80 77 76 77 80 82 74 77 77 89 89 88 83 85 83 80 77 73 70
7 31 14 11 13 14 15 20 30 6 7 4 11 37 31 25 44 62 60 66 76 84 88 90 88 86 83 79 76 82 92 89 84 90 79 91 87 83 82 84 87 86 82 80
25 8 31 17 10 22 16 29 19 16 3 9 6 30 34 22 38 55 59 63 69 75 80 82 77 76 73 86 96 94 91 101 96 91 90 89 94 90 90 92 94 95 92 89
18 16 18 13 20 16 20 14 17 13 7 9 10 14 22 19 30 36 58 58 70 75 62 63 72 78 75 79 92 95 95 90 101 99 97 92 105 102 97 91 94 96 96 97
18 22 20 18 18 17 20 14 15 12 11 6 20 11 13 5 27 33 44 60 69 69 75 79 75 74 75 85 83 91 93 90 90 107 103 101 101 108 103 96 95 95 99 98
20 9 17 23 14 18 7 7 1 1 6 19 39 16 24 20 27 15 19 46 60 67 80 82 65 54 71 69 72 76 90 94 88 100 106 106 104 104 107 103 103 103 100 100
13 13 5 11 10 8 10 8 9 6 13 16 4 14 27 22 26 28 35 60 76 71 78 69 71 75 63 54 58 65 75 86 86 91 101 108 110 108 112 110 105 106 107 109
24 14 29 12 16 12 19 23 15 12 9 11 5 12 13 27 55 40 57 57 53 56 67 69 52 45 39 38 37 49 66 78 80 86 94 95 101 107 114 116 111 108 110 113
15 15 8 11 10 19 11 17 26 7 4 4 8 13 21 34 39 47 33 30 50 51 54 69 49 36 32 30 28 26 32 41 51 66 81 91 98 103 110 118 115 114 111 112
11 2 13 19 15 23 22 14 4 5 7 12 9 9 16 15 5 12 21 34 47 49 57 61 63 57 48 40 26 24 26 31 30 39 52 66 84 96 98 108 117 117 113 107
8 9 2 14 21 30 8 16 10 9 10 9 6 12 19 34 11 8 11 34 52 61 60 61 68 66 63 53 41 38 41 44 47 44 44 49 61 81 94 102 108 112 110 111
17 8 9 15 2 13 32 33 28 17 14 8 9 26 16 5 5 11 31 44 54 57 66 75 65 57 48 41 40 39 41 42 48 54 54 55 49 56 73 89 105 105 108 110
25 10 4 13 8 2 12 20 20 24 6 32 14 25 11 10 16 40 41 48 58 55 53 51 47 47 47 48 50 49 49 48 44 44 42 49 57 58 63 73 84 96 106 110
48 10 21 25 14 9 11 13 26 27 12 26 28 43 53 19 16 23 38 60 31 31 38 42 49 60 59 62 62 63 58 58 59 58 56 56 53 54 66 67 69 79 93 105
20 13 11 7 8 5 8 12 20 29 39 16 11 30 40 4 9 25 20 26 33 44 50 57 65 69 72 72 74 71 68 70 75 70 70 67 65 60 60 63 69 70 77 89
9 6 8 5 8 8 12 15 14 9 7 13 13 50 11 22 21 27 30 37 42 50 56 66 71 76 82 85 85 84 85 82 81 81 75 70 66 67 63 65 65 71 69 74
22 12 7 9 1 5 18 16 20 13 13 17 27 33 8 10 17 13 22 34 38 46 62 73 79 80 85 89 89 92 93 92 87 85 82 76 71 72 71 67 66 69 70 72
15 16 4 6 5 11 8 4 11 26 24 12 7 13 15 9 18 22 12 41 52 52 67 75 80 84 89 92 92 95 95 96 93 89 86 83 77 75 75 76 74 72 71 75
12 12 6 10 8 8 9 9 12 14 14 4 3 13 13 27 11 18 13 49 58 62 70 74 74 84 88 90 95 99 99 99 97 96 93 88 85 80 77 78 81 78 75 76
11 15 13 6 11 18 12 11 8 6 10 9 12 11 10 15 3 1 30 61 65 67 71 76 84 86 89 92 91 96 100 99 100 98 99 96 88 87 83 77 78 84 83 85
13 6 29 7 7 13 13 2 7 10 5 16 10 6 4 1 9 40 55 60 61 64 65 76 83 87 89 93 96 97 98 96 97 100 100 99 93 89 87 84 78 77 86 90
16 16 9 6 4 23 8 1 13 10 14 13 5 5 9 16 28 35 46 52 58 71 78 77 83 83 83 85 89 94 94 94 93 97 97 97 94 89 88 87 82 78 75 82
9 13 11 15 9 8 12 20 23 16 17 3 7 14 22 27 28 34 42 49 57 64 71 72 75 80 79 79 80 88 90 90 91 92 96 93 92 89 83 84 85 80 75 74
3 6 7 10 7 16 24 24 17 13 6 4 12 19 20 26 30 31 37 44 49 58 65 67 69 73 79 76 75 75 81 84 86 88 88 87 84 87 83 80 79 82 77 75
5 10 12 9 12 19 9 15 13 4 2 8 12 17 21 25 28 35 42 43 48 54 59 60 61 67 71 74 71 70 74 77 81 83 80 79 78 74 79 78 77 77 75 66
2 8 8 7 31 13 15 28 12 6 3 8 12 15 18 23 28 34 36 39 44 49 53 56 55 59 66 70 69 68 68 73 77 77 75 73 74 74 73 76 85 76 72 65
Wind_Direction_500mb
198 202 214 212 224 223 206 214 240 174 209 204 260 285 284 301 298 288 284 286 286 283 281 276 274 275 267 261 259 254 250 250 242 235 238 240 241 242 242 243 245 244 243 243
174 228 194 182 222 218 236 254 257 250 243 239 286 282 285 279 282 277 277 278 282 283 286 286 280 273 266 264 261 257 253 250 247 241 247 243 247 246 247 247 245 245 244 245
212 224 178 181 189 216 227 231 250 252 241 254 252 277 279 276 252 272 278 280 280 280 284 289 286 280 268 264 261 261 258 253 250 246 242 243 242 245 246 246 246 245 244 245
227 209 173 187 228 185 232 193 229 230 226 252 153 284 280 282 270 263 272 271 275 278 279 288 289 285 280 271 262 263 262 257 254 248 243 244 245 245 249 250 250 248 246 245
213 172 182 192 219 173 242 162 204 202 217 262 234 243 284 289 284 270 269 273 276 276 282 291 282 286 290 285 272 260 260 257 254 250 246 245 247 251 254 253 254 253 251 248
233 196 180 213 198 183 128 135 69 223 203 244 248 214 265 258 253 285 282 281 283 283 294 294 291 285 300 288 274 265 260 260 256 250 248 245 248 253 252 254 254 255 255 254
191 218 247 185 156 160 175 141 264 267 229 247 166 182 236 268 268 259 281 288 295 302 303 301 284 288 299 293 277 271 265 262 259 254 252 250 250 254 255 257 258 258 258 257
205 217 198 192 192 178 198 194 212 208 231 252 127 217 251 239 261 272 276 299 315 331 340 334 318 303 308 291 293 276 270 267 263 260 257 260 257 255 259 259 259 261 263 263
180 239 196 199 157 155 193 199 221 290 167 266 227 284 291 279 278 283 309 7 6 8 13 10 2 3 350 330 302 291 290 280 273 269 264 260 260 257 259 261 261 263 264 263
201 226 204 195 169 223 195 149 163 253 205 240 232 256 245 277 259 354 13 5 351 345 357 360 12 13 19 16 19 9 357 324 316 294 273 268 266 265 266 265 263 262 264 260
197 158 197 119 208 193 177 212 204 158 156 197 247 247 222 260 208 334 332 347 337 336 343 347 343 339 342 340 342 337 333 327 325 327 316 289 279 272 265 264 264 264 265 264
185 151 196 206 270 199 212 221 212 219 223 237 257 263 236 195 326 10 335 334 330 331 349 341 342 338 345 341 339 337 329 326 323 324 320 321 304 287 276 272 268 267 266 264
177 199 66 333 332 206 200 215 201 215 85 238 231 260 105 291 332 320 321 327 332 344 341 343 354 359 355 349 345 337 335 328 320 312 309 310 313 306 300 285 274 270 266 263
167 160 199 218 212 162 200 187 203 198 206 245 230 268 267 287 299 311 317 322 10 15 8 0 355 354 354 352 349 345 341 338 333 325 317 313 310 300 297 298 290 276 269 266
164 201 178 184 170 186 201 187 187 204 224 204 232 245 268 22 321 323 15 13 7 6 2 1 355 352 348 347 346 343 340 339 337 333 328 319 309 304 300 294 298 291 275 267
176 180 120 243 253 206 243 218 212 208 224 252 255 259 21 78 52 53 48 29 15 2 355 351 349 347 345 345 342 338 336 337 335 334 332 328 311 301 295 294 294 295 288 275
166 125 110 236 171 76 281 217 199 199 197 202 233 265 49 45 60 71 54 28 8 353 347 344 344 341 339 338 337 335 332 329 327 327 328 326 324 306 296 291 286 285 287 287
143 143 138 154 74 221 242 258 214 212 231 222 352 55 55 344 320 176 60 12 355 346 340 338 337 335 334 333 332 329 327 326 323 321 320 321 319 316 303 292 288 286 286 283
136 143 148 169 201 312 282 235 170 172 224 67 120 66 28 340 350 189 231 338 339 333 331 330 331 329 328 329 327 324 324 322 321 320 317 316 317 315 314 300 290 287 284 280
123 177 180 141 200 213 225 171 38 99 249 102 88 77 33 347 161 203 305 320 326 326 328 328 327 326 327 326 325 321 320 320 319 317 316 314 313 311 310 312 302 289 283 280
165 128 209 170 209 284 262 327 320 128 230 129 107 87 48 310 256 292 311 318 323 328 326 329 328 329 326 323 322 321 319 320 316 314 313 312 313 309 307 306 308 301 287 281
162 162 184 116 174 251 2 152 192 121 115 132 91 341 315 301 305 311 316 323 329 327 331 331 328 326 325 325 323 320 321 319 316 313 311 312 312 309 307 306 305 305 299 287
187 180 176 184 202 59 48 106 117 126 130 134 324 319 321 319 320 326 328 331 331 332 334 334 332 329 330 330 329 324 322 321 318 315 314 315 314 312 309 308 306 306 304 297
216 171 143 138 145 130 116 113 118 119 119 294 309 320 328 325 332 332 332 333 335 340 340 337 336 335 336 336 335 331 328 324 323 321 320 320 319 316 314 310 309 309 306 300
210 126 131 83 100 110 139 156 153 153 296 308 326 333 332 336 339 337 337 339 341 344 344 342 342 340 341 342 342 338 334 332 329 326 326 324 323 319 315 313 313 310 307 302
235 167 168 197 162 128 143 180 180 197 276 332 342 346 347 344 347 342 339 341 344 346 348 346 345 343 344 345 346 344 341 340 338 335 333 331 328 326 321 318 314 312 311 311
Wind_Speed_850mb
16 10 25 27 18 10 3 8 14 5 9 2 12 29 14 30 49 44 60 64 72 82 83 78 79 80 77 76 77 80 82 74 77 77 89 89 88 83 85 83 80 77 73 70
7 31 14 11 13 14 15 20 30 6 7 4 11 37 31 25 44 62 60 66 76 84 88 90 88 86 83 79 76 82 92 89 84 90 79 91 87 83 82 84 87 86 82 80
25 8 31 17 10 22 16 29 19 16 3 9 6 30 34 22 38 55 59 63 69 75 80 82 77 76 73 86 96 94 91 101 96 91 90 89 94 90 90 92 94 95 92 89
18 16 18 13 20 16 20 14 17 13 7 9 10 14 22 19 30 36 58 58 70 75 62 63 72 78 75 79 92 95 95 90 101 99 97 92 105 102 97 91 94 96 96 97
18 22 20 18 18 17 20 14 15 12 11 6 20 11 13 5 27 33 44 60 69 69 75 79 75 74 75 85 83 91 93 90 90 107 103 101 101 108 103 96 95 95 99 98
20 9 17 23 14 18 7 7 1 1 6 19 39 16 24 20 27 15 19 46 60 67 80 82 65 54 71 69 72 76 90 94 88 100 106 106 104 104 107 103 103 103 100 100
13 13 5 11 10 8 10 8 9 6 13 16 4 14 27 22 26 28 35 60 76 71 78 69 71 75 63 54 58 65 75 86 86 91 101 108 110 108 112 110 105 106 107 109
24 14 29 12 16 12 19 23 15 12 9 11 5 12 13 27 55 40 57 57 53 56 67 69 52 45 39 38 37 49 66 78 80 86 94 95 101 107 114 116 111 108 110 113
15 15 8 11 10 19 11 17 26 7 4 4 8 13 21 34 39 47 33 30 50 51 54 69 49 36 32 30 28 26 32 41 51 66 81 91 98 103 110 118 115 114 111 112
11 2 13 19 15 23 22 14 4 5 7 12 9 9 16 15 5 12 21 34 47 49 57 61 63 57 48 40 26 24 26 31 30 39 52 66 84 96 98 108 117 117 113 107
8 9 2 14 21 30 8 16 10 9 10 9 6 12 19 34 11 8 11 34 52 61 60 61 68 66 63 53 41 38 41 44 47 44 44 49 61 81 94 102 108 112 110 111
17 8 9 15 2 13 32 33 28 17 14 8 9 26 16 5 5 11 31 44 54 57 66 75 65 57 48 41 40 39 41 42 48 54 54 55 49 56 73 89 105 105 108 110
25 10 4 13 8 2 12 20 20 24 6 32 14 25 11 10 16 40 41 48 58 55 53 51 47 47 47 48 50 49 49 48 44 44 42 49 57 58 63 73 84 96 106 110
48 10 21 25 14 9 11 13 26 27 12 26 28 43 53 19 16 23 38 60 31 31 38 42 49 60 59 62 62 63 58 58 59 58 56 56 53 54 66 67 69 79 93 105
20 13 11 7 8 5 8 12 20 29 39 16 11 30 40 4 9 25 20 26 33 44 50 57 65 69 72 72 74 71 68 70 75 70 70 67 65 60 60 63 69 70 77 89
9 6 8 5 8 8 12 15 14 9 7 13 13 50 11 22 21 27 30 37 42 50 56 66 71 76 82 85 85 84 85 82 81 81 75 70 66 67 63 65 65 71 69 74
22 12 7 9 1 5 18 16 20 13 13 17 27 33 8 10 17 13 22 34 38 46 62 73 79 80 85 89 89 92 93 92 87 85 82 76 71 72 71 67 66 69 70 72
15 16 4 6 5 11 8 4 11 26 24 12 7 13 15 9 18 22 12 41 52 52 67 75 80 84 89 92 92 95 95 96 93 89 86 83 77 75 75 76 74 72 71 75
12 12 6 10 8 8 9 9 12 14 14 4 3 13 13 27 11 18 13 49 58 62 70 74 74 84 88 90 95 99 99 99 97 96 93 88 85 80 77 78 81 78 75 76
11 15 13 6 11 18 12 11 8 6 10 9 12 11 10 15 3 1 30 61 65 67 71 76 84 86 89 92 91 96 100 99 100 98 99 96 88 87 83 77 78 84 83 85
13 6 29 7 7 13 13 2 7 10 5 16 10 6 4 1 9 40 55 60 61 64 65 76 83 87 89 93 96 97 98 96 97 100 100 99 93 89 87 84 78 77 86 90
16 16 9 6 4 23 8 1 13 10 14 13 5 5 9 16 28 35 46 52 58 71 78 77 83 83 83 85 89 94 94 94 93 97 97 97 94 89 88 87 82 78 75 82
9 13 11 15 9 8 12 20 23 16 17 3 7 14 22 27 28 34 42 49 57 64 71 72 75 80 79 79 80 88 90 90 91 92 96 93 92 89 83 84 85 80 75 74
3 6 7 10 7 16 24 24 17 13 6 4 12 19 20 26 30 31 37 44 49 58 65 67 69 73 79 76 75 75 81 84 86 88 88 87 84 87 83 80 79 82 77 75
5 10 12 9 12 19 9 15 13 4 2 8 12 17 21 25 28 35 42 43 48 54 59 60 61 67 71 74 71 70 74 77 81 83 80 79 78 74 79 78 77 77 75 66
2 8 8 7 31 13 15 28 12 6 3 8 12 15 18 23 28 34 36 39 44 49 53 56 55 59 66 70 69 68 68 73 77 77 75 73 74 74 73 76 85 76 72 65
Wind_Direction_850mb
198 202 214 212 224 223 206 214 240 174 209 204 260 285 284 301 298 288 284 286 286 283 281 276 274 275 267 261 259 254 250 250 242 235 238 240 241 242 242 243 245 244 243 243
174 228 194 182 222 218 236 254 257 250 243 239 286 282 285 279 282 277 277 278 282 283 286 286 280 273 266 264 261 257 253 250 247 241 247 243 247 246 247 247 245 245 244 245
212 224 178 181 189 216 227 231 250 252 241 254 252 277 279 276 252 272 278 280 280 280 284 289 286 280 268 264 261 261 258 253 250 246 242 243 242 245 246 246 246 245 244 245
227 209 173 187 228 185 232 193 229 230 226 252 153 284 280 282 270 263 272 271 275 278 279 288 289 285 280 271 262 263 262 257 254 248 243 244 245 245 249 250 250 248 246 245
213 172 182 192 219 173 242 162 204 202 217 262 234 243 284 289 284 270 269 273 276 276 282 291 282 286 290 285 272 260 260 257 254 250 246 245 247 251 254 253 254 253 251 248
233 196 180 213 198 183 128 135 69 223 203 244 248 214 265 258 253 285 282 281 283 283 294 294 291 285 300 288 274 265 260 260 256 250 248 245 248 253 252 254 254 255 255 254
191 218 247 185 156 160 175 141 264 267 229 247 166 182 236 268 268 259 281 288 295 302 303 301 284 288 299 293 277 271 265 262 259 254 252 250 250 254 255 257 258 258 258 257
205 217 198 192 192 178 198 194 212 208 231 252 127 217 251 239 261 272 276 299 315 331 340 334 318 303 308 291 293 276 270 267 263 260 257 260 257 255 259 259 259 261 263 263
180 239 196 199 157 155 193 199 221 290 167 266 227 284 291 279 278 283 309 7 6 8 13 10 2 3 350 330 302 291 290 280 273 269 264 260 260 257 259 261 261 263 264 263
201 226 204 195 169 223 195 149 163 253 205 240 232 256 245 277 259 354 13 5 351 345 357 360 12 13 19 16 19 9 357 324 316 294 273 268 266 265 266 265 263 262 264 260
197 158 197 119 208 193 177 212 204 158 156 197 247 247 222 260 208 334 332 347 337 336 343 347 343 339 342 340 342 337 333 327 325 327 316 289 279 272 265 264 264 264 265 264
185 151 196 206 270 199 212 221 212 219 223 237 257 263 236 195 326 10 335 334 330 331 349 341 342 338 345 341 339 337 329 326 323 324 320 321 304 287 276 272 268 267 266 264
177 199 66 333 332 206 200 215 201 215 85 238 231 260 105 291 332 320 321 327 332 344 341 343 354 359 355 349 345 337 335 328 320 312 309 310 313 306 300 285 274 270 266 263
167 160 199 218 212 162 200 187 203 198 206 245 230 268 267 287 299 311 317 322 10 15 8 0 355 354 354 352 349 345 341 338 333 325 317 313 310 300 297 298 290 276 269 266
164 201 178 184 170 186 201 187 187 204 224 204 232 245 268 22 321 323 15 13 7 6 2 1 355 352 348 347 346 343 340 339 337 333 328 319 309 304 300 294 298 291 275 267
176 180 120 243 253 206 243 218 212 208 224 252 255 259 21 78 52 53 48 29 15 2 355 351 349 347 345 345 342 338 336 337 335 334 332 328 311 301 295 294 294 295 288 275
166 125 110 236 171 76 281 217 199 199 197 202 233 265 49 45 60 71 54 28 8 353 347 344 344 341 339 338 337 335 332 329 327 327 328 326 324 306 296 291 286 285 287 287
143 143 138 154 74 221 242 258 214 212 231 222 352 55 55 344 320 176 60 12 355 346 340 338 337 335 334 333 332 329 327 326 323 321 320 321 319 316 303 292 288 286 286 283
136 143 148 169 201 312 282 235 170 172 224 67 120 66 28 340 350 189 231 338 339 333 331 330 331 329 328 329 327 324 324 322 321 320 317 316 317 315 314 300 290 287 284 280
123 177 180 141 200 213 225 171 38 99 249 102 88 77 33 347 161 203 305 320 326 326 328 328 327 326 327 326 325 321 320 320 319 317 316 314 313 311 310 312 302 289 283 280
165 128 209 170 209 284 262 327 320 128 230 129 107 87 48 310 256 292 311 318 323 328 326 329 328 329 326 323 322 321 319 320 316 314 313 312 313 309 307 306 308 301 287 281
162 162 184 116 174 251 2 152 192 121 115 132 91 341 315 301 305 311 316 323 329 327 331 331 328 326 325 325 323 320 321 319 316 313 311 312 312 309 307 306 305 305 299 287
187 180 176 184 202 59 48 106 117 126 130 134 324 319 321 319 320 326 328 331 331 332 334 334 332 329 330 330 329 324 322 321 318 315 314 315 314 312 309 308 306 306 304 297
216 171 143 138 145 130 116 113 118 119 119 294 309 320 328 325 332 332 332 333 335 340 340 337 336 335 336 336 335 331 328 324 323 321 320 320 319 316 314 310 309 309 306 300
210 126 131 83 100 110 139 156 153 153 296 308 326 333 332 336 339 337 337 339 341 344 344 342 342 340 341 342 342 338 334 332 329 326 326 324 323 319 315 313 313 310 307 302
235 167 168 197 162 128 143 180 180 197 276 332 342 346 347 344 347 342 339 341 344 346 348 346 345 343 344 345 346 344 341 340 338 335 333 331 328 326 321 318 314 312 311 311